Location: Clarks Summit,Pa.
(41.5000°N, 75.6000°W)
Time: 15:15:49
(UTC-05:00)

BlueWalker 3 - Pass Details

Date: 01 December 2022
Orbit: 499 x 517 km, 53.2° (Epoch: 29 January)

Event Time Altitude Azimuth Distance (km) Brightness Sun altitude
Rises 17:33:35 0° 290° (WNW) 2,631 6.5 -11.1°
Reaches altitude 10° 17:36:32 10° 313° (NW) 1,740 5.0 -11.6°
Maximum altitude 17:38:58 16° 352° (N) 1,415 4.1 -12.1°
Enters shadow 17:41:09 11° 27° (NNE) 1,673 4.2 -12.4°
